PDT,Max TemperatureF,Mean TemperatureF,Min TemperatureF,Max Dew PointF,MeanDew PointF,Min DewpointF,Max Humidity, Mean Humidity, Min Humidity, Max Sea Level PressureIn, Mean Sea Level PressureIn, Min Sea Level PressureIn, Max VisibilityMiles, Mean VisibilityMiles, Min VisibilityMiles, Max Wind SpeedMPH, Mean Wind SpeedMPH, Max Gust SpeedMPH,PrecipitationIn, CloudCover, Events, WindDirDegrees
2013-3-1,82,63,44,30,24,21,49,21,11,30.32,30.24,30.18,10,10,10,8,2,,0.00,0,,213
2013-3-2,82,68,55,73,29,18,83,23,9,30.24,30.15,30.08,10,10,10,9,4,,0.00,4,,239
2013-3-3,71,62,53,37,29,21,47,26,16,30.10,30.02,29.97,10,10,10,12,4,,0.00,6,,260
2013-3-4,66,58,50,46,44,39,82,57,37,30.09,30.06,30.02,10,7,4,5,1,,0.00,3,,240
2013-3-5,66,56,46,48,46,43,93,68,46,30.12,30.06,30.00,10,6,2,12,4,,0.00,3,,235
2013-3-6,59,52,46,43,40,37,87,62,45,30.15,30.07,30.00,10,10,10,14,3,18,0.00,6,,243
2013-3-7,53,50,48,46,44,41,93,79,67,30.01,29.97,29.93,10,7,4,12,3,,0.00,8,Rain,89
2013-3-8,51,46,42,41,38,32,87,76,47,30.01,29.90,29.85,10,8,5,10,6,,0.00,7,Rain,121
2013-3-9,60,52,44,43,41,39,87,64,45,30.18,30.11,30.07,10,10,10,9,4,,0.00,4,,237
2013-3-10,73,56,39,36,26,19,87,32,13,30.26,30.19,30.12,10,10,10,15,5,23,0.00,0,,326
2013-3-11,75,58,41,37,29,21,70,32,13,30.18,30.12,30.03,10,10,10,10,1,,0.00,0,,250
2013-3-12,84,63,42,45,35,27,76,33,12,30.08,30.05,30.00,10,10,10,12,3,,0.00,0,,196
2013-3-13,87,66,46,46,35,27,71,30,11,30.13,30.08,30.02,10,10,10,9,2,,0.00,0,,238
2013-3-14,91,71,51,46,40,32,71,32,12,30.11,30.06,30.00,10,10,10,16,2,,0.00,1,,242
2013-3-15,87,69,51,46,38,30,76,34,13,30.04,29.98,29.92,10,10,10,13,2,,0.00,3,,248
2013-3-16,77,62,48,48,43,39,71,46,29,29.96,29.91,29.86,10,8,4,12,4,,0.00,0,,224
2013-3-17,71,60,48,48,47,43,100,66,35,30.00,29.96,29.92,7,4,1,9,2,,0.00,5,,243
2013-3-18,66,58,51,48,47,45,88,65,46,30.07,30.03,30.00,4,3,2,9,3,,0.00,8,,236
2013-3-19,68,60,51,48,47,45,88,65,43,30.11,30.08,30.04,5,3,2,7,2,,0.00,7,,233
2013-3-20,71,60,48,48,46,43,93,56,35,30.08,30.04,29.98,7,5,3,9,2,,0.00,6,,234
2013-3-21,73,60,48,48,45,43,87,55,33,29.93,29.87,29.80,10,7,2,8,2,,0.00,3,,249
2013-3-22,73,62,50,48,44,37,88,54,27,29.89,29.84,29.81,10,8,4,16,4,21,0.00,1,,238
2013-3-23,78,60,42,46,34,19,76,38,12,30.00,29.96,29.91,10,8,7,12,2,,0.00,0,,254
2013-3-24,80,63,46,46,35,25,76,36,13,30.02,29.95,29.87,10,10,10,14,2,,0.00,0,,243
2013-3-25,82,63,44,43,35,28,71,30,14,29.99,29.93,29.87,10,10,10,13,3,,0.00,2,,243
2013-3-26,77,64,50,46,40,34,72,42,22,29.96,29.92,29.88,10,7,5,12,3,17,0.00,3,,257
2013-3-27,73,62,50,48,44,39,82,52,29,30.01,29.98,29.93,10,7,4,12,4,,0.00,3,,242
2013-3-28,78,62,46,48,44,37,87,46,24,30.07,30.04,30.00,10,9,5,14,3,,0.00,3,,235
2013-3-29,82,66,50,50,44,36,82,44,20,30.10,30.06,30.01,10,9,7,15,4,,0.00,1,,247
2013-3-30,78,66,53,52,45,36,94,50,21,30.14,30.08,30.02,10,7,2,13,6,,0.00,2,,250
2013-3-31,69,60,51,52,46,43,77,56,40,30.13,30.10,30.04,10,9,7,14,4,,0.00,4,,244